Flag for Norway Weather past 2 weeks in Stange, Norway

Now
34 °F

Chilly.


Feels Like: 34 °F
Forecast: 35 / 63 °F
Wind: 1 mph from South

Location: Haugedalshogda


UV Index: 0 (Low)

Visibility: N/A


Pressure: 30.59 "Hg

Humidity: 78%

Dew point: 28 °F

Location of StangeLocation

Historic Weather in Stange

°F

Stange temperature yesterday

Maximum temperature yesterday: 58 °F (at 4:00 PM)
Minimum temperature yesterday: 22 °F (at 6:00 AM)
Average temperature yesterday: 41 °F

Past Weeks' High & Low Weather Summary

 TemperatureHumidityPressure
High63 °F (Apr 21, 4:00 PM)98% (Apr 14, 4:00 AM)30.63 "Hg (Apr 14, 4:00 AM)
Low19 °F (Apr 19, 6:00 AM)22% (Apr 19, 2:00 PM)29.23 "Hg (Apr 13, 9:00 AM)
Average39 °F68%30.02 "Hg
* Reported Apr 9 8:00 AM — Apr 24 8:00 AM, Stange, Weather by CustomWeather, © 2014

Note: Actual official high and low records may vary slightly from our data, if they occured in-between our weather recording intervals... More about our weather records

Advertising

Historic Weather Conditions — Data for Previous 24 hours

 ConditionsComfort  
Time TempWeatherWind HumidityBarometerVisibility
8:00 AM
Apr 24
34 °FChilly.1 mph78%30.59 "HgN/A
7:00 AM25 °FChilly.1 mph93%30.61 "HgN/A
6:00 AM19 °FCold.No wind93%30.62 "HgN/A
5:00 AM20 °FCold.1 mph95%30.63 "HgN/A
4:00 AM21 °FCold.1 mph95%30.63 "HgN/A
3:00 AM22 °FCold.1 mph95%30.61 "HgN/A
2:00 AM23 °FCold.1 mph96%30.60 "HgN/A
1:00 AM25 °FCold.No wind93%30.59 "HgN/A
12:00 AM26 °FChilly.1 mph92%30.58 "HgN/A
11:00 PM
Apr 23
31 °FChilly.1 mph88%30.55 "HgN/A
10:00 PM33 °FChilly.1 mph81%30.53 "HgN/A
9:00 PM40 °FQuite cool.1 mph67%30.49 "HgN/A
8:00 PM53 °FCool.3 mph39%30.45 "HgN/A
7:00 PM56 °FRefreshingly cool.3 mph34%30.43 "HgN/A
6:00 PM57 °FRefreshingly cool.3 mph33%30.43 "HgN/A
5:00 PM57 °FRefreshingly cool.5 mph34%30.44 "HgN/A
4:00 PM58 °FRefreshingly cool.2 mph31%30.44 "HgN/A
3:00 PM57 °FRefreshingly cool.2 mph31%30.46 "HgN/A
2:00 PM56 °FRefreshingly cool.3 mph32%30.47 "HgN/A
1:00 PM55 °FCool.2 mph33%30.48 "HgN/A
12:00 PM53 °FCool.2 mph38%30.50 "HgN/A
11:00 AM49 °FCool.1 mph44%30.51 "HgN/A
10:00 AM43 °FQuite cool.1 mph56%30.52 "HgN/A
9:00 AM37 °FChilly.2 mph71%30.53 "HgN/A
Weather by CustomWeather, © 2014

See weather overview